User: anonymous   Login
Location: Seminole
(32.7190°N, 102.6440°W)
Time: 08:29:43
(UTC-06:00)
Language:

Meteor 2-10 - Orbit

View from above orbital plane
View from above orbital plane
View from above satellite
View from above satellite

Ground track
Ground track

The orbit data is extracted from the following two-line orbital elements,

1 14452U 83109A   14326.46732205  .00000190  00000-0  71111-4 0  6556
2 14452 081.1618 302.7162 0090158 220.2836 139.1642 14.26281332615347
Epoch (UTC): 22 November 2014 11:12:56
Eccentricity: 0.0090158
inclination: 81.1618°
perigee height: 739 km
apogee height: 869 km
right ascension of ascending node: 302.7162°
argument of perigee: 220.2836°
revolutions per day: 14.26281332
mean anomaly at epoch: 139.1642°
orbit number at epoch: 61534

The dashed part of the orbit path shows where the satellite is in the earth's shadow,  

DLR